Weather History for Lanai City, HI

Change the Weather History Date:

Sunday, May 19, 2013

  Actual Average Record
Temperature  
Mean Temperature 72 °F -  
Max Temperature 81 °F 79 °F 83 °F (1980)
Min Temperature 64 °F 63 °F 59 °F (1955)
Cooling Degree Days 8    
Growing Degree Days 22 (Base 50)    
Moisture  
Dew Point 65 °F    
Average Humidity 75    
Maximum Humidity 96    
Minimum Humidity 60    
Precipitation  
Precipitation 0.00 in - - ()
Sea Level Pressure  
Sea Level Pressure 29.99 in    
Wind  
Wind Speed 5 mph (NNE)    
Max Wind Speed 13 mph    
Max Gust Speed -    
Visibility 10 miles    
Events      
Averages and records for this station are not official NWS values.
T = Trace of Precipitation, MM = Missing Value Source: NWS Daily Summary

Daily Weather History Graph

Daily Weather History Graph

Search for Another Location

Airport:

Trip Planner

Search our weather history database for the weather conditions in past years. The results will help you decide how hot, cold, wet, or windy it might be!

Date:

Astronomy

May. 19, 2013 Rise Set
Actual Time 5:48 AM HST 6:59 PM HST
Civil Twilight 5:24 AM HST 7:23 PM HST
Nautical Twilight 4:56 AM HST 7:52 PM HST
Astronomical Twilight 4:27 AM HST 8:21 PM HST
Moon 1:55 PM HST (5/19) 1:34 AM HST (5/19)
Length of Visible Light 13h 59m
Length of Day
13h 11m
Waxing Gibbous, 67% of the Moon is Illuminated
May 19
Waxing Gibbous
May 24
Full
May 31
Last Quarter
Jun 8
New
Jun 16
First Quarter

Hourly Weather History & Observations

Time (HST) Temp. Heat Index Dew Point Humidity Pressure Visibility Wind Dir Wind Speed Gust Speed Precip Events Conditions
12:28 AM 66.2 °F - 64.4 °F 94% 30.07 in 10.0 mi ENE 3.5 mph - N/A   Scattered Clouds
12:56 AM 66.9 °F - 64.9 °F 93% 30.00 in 10.0 mi ENE 4.6 mph - N/A   Scattered Clouds
1:56 AM 66.2 °F - 64.4 °F 94% 30.04 in 10.0 mi North 3.5 mph - N/A   Scattered Clouds
2:56 AM 66.9 °F - 63.9 °F 90% 29.97 in 10.0 mi Calm Calm - N/A   Clear
3:56 AM 64.9 °F - 63.9 °F 96% 29.97 in 10.0 mi ENE 4.6 mph - N/A   Partly Cloudy
4:56 AM 64.9 °F - 63.9 °F 96% 29.97 in 10.0 mi ENE 5.8 mph - N/A   Clear
5:56 AM 64.9 °F - 63.0 °F 93% 29.98 in 10.0 mi ENE 4.6 mph - N/A   Clear
6:56 AM 70.0 °F - 64.9 °F 84% 29.99 in 10.0 mi NE 8.1 mph - N/A   Clear
7:56 AM 73.9 °F - 64.9 °F 73% 30.00 in 10.0 mi Variable 3.5 mph - N/A   Clear
8:47 AM 78.8 °F - 64.4 °F 61% 30.05 in 10.0 mi Variable 3.5 mph - N/A   Mostly Cloudy
8:56 AM 79.0 °F - 63.9 °F 60% 29.99 in 10.0 mi Variable 5.8 mph - N/A   Mostly Cloudy
9:15 AM 78.8 °F - 64.4 °F 61% 30.05 in 10.0 mi South 4.6 mph - N/A   Partly Cloudy
9:56 AM 75.9 °F - 64.9 °F 69% 29.99 in 10.0 mi SW 4.6 mph - N/A   Scattered Clouds
10:06 AM 77.0 °F - 66.2 °F 69% 30.05 in 10.0 mi West 6.9 mph - N/A   Mostly Cloudy
10:23 AM 78.8 °F - 66.2 °F 65% 30.05 in 10.0 mi WSW 5.8 mph - N/A   Scattered Clouds
10:56 AM 78.8 °F - 66.2 °F 65% 30.04 in 10.0 mi West 8.1 mph - N/A   Scattered Clouds
11:06 AM 77.0 °F - 66.2 °F 69% 30.04 in 10.0 mi West 6.9 mph - N/A   Mostly Cloudy
11:33 AM 78.8 °F - 66.2 °F 65% 30.03 in 10.0 mi Variable 5.8 mph - N/A   Scattered Clouds
11:42 AM 77.0 °F - 64.4 °F 65% 30.03 in 10.0 mi Variable 5.8 mph - N/A   Mostly Cloudy
11:49 AM 77.0 °F - 64.4 °F 65% 30.03 in 10.0 mi West 10.4 mph - N/A   Partly Cloudy
11:56 AM 79.9 °F - 65.8 °F 62% 29.96 in 10.0 mi Variable 6.9 mph - N/A   Partly Cloudy
12:56 PM 77.9 °F - 65.8 °F 66% 29.95 in 10.0 mi Variable 6.9 mph - N/A   Scattered Clouds
1:16 PM 77.0 °F - 64.4 °F 65% 30.01 in 10.0 mi WSW 6.9 mph - N/A   Mostly Cloudy
1:56 PM 80.6 °F 82.7 °F 66.2 °F 61% 29.99 in 10.0 mi West 8.1 mph - N/A   Mostly Cloudy
2:56 PM 81.0 °F 83.3 °F 66.9 °F 62% 29.91 in 10.0 mi West 12.7 mph - N/A   Scattered Clouds
3:34 PM 75.2 °F - 66.2 °F 73% 29.98 in 10.0 mi ENE 10.4 mph - N/A   Mostly Cloudy
3:56 PM 72.9 °F - 64.9 °F 76% 29.93 in 10.0 mi East 5.8 mph - N/A   Overcast
4:37 PM 75.2 °F - 64.4 °F 69% 29.97 in 10.0 mi NE 6.9 mph - N/A   Mostly Cloudy
4:56 PM 75.2 °F - 64.4 °F 69% 29.97 in 10.0 mi NNE 5.8 mph - N/A   Mostly Cloudy
5:56 PM 75.9 °F - 64.9 °F 69% 29.93 in 10.0 mi North 4.6 mph - N/A   Mostly Cloudy
6:25 PM 75.2 °F - 62.6 °F 65% 29.98 in 10.0 mi North 6.9 mph - N/A   Mostly Cloudy
6:56 PM 72.9 °F - 63.9 °F 73% 29.94 in 10.0 mi NE 5.8 mph - N/A   Mostly Cloudy
7:56 PM 68.9 °F - 63.9 °F 84% 29.96 in 10.0 mi North 3.5 mph - N/A   Clear
8:56 PM 66.9 °F - 61.9 °F 84% 29.97 in 10.0 mi ENE 4.6 mph - N/A   Clear
9:56 PM 66.9 °F - 61.9 °F 84% 29.98 in 10.0 mi Calm Calm - N/A   Mostly Cloudy
10:56 PM 65.8 °F - 63.0 °F 90% 29.98 in 10.0 mi ENE 6.9 mph - N/A   Clear
11:56 PM 65.8 °F - 63.0 °F 90% 29.97 in 10.0 mi ENE 4.6 mph - N/A   Partly Cloudy